Location: Caltech
(34.1382°N, 118.1253°W)
Time: 08:44:16
(UTC-07:00)

Iridium 62 - Visible Passes

Search period start: 25 June 2017 00:00
Search period end: 05 July 2017 00:00
Orbit: 776 x 779 km, 86.4° (Epoch: 25 June)

Date Brightness Start Highest point End Pass type
(mag) Time Alt. Az. Time Alt. Az. Time Alt. Az.
25 Jun 6.8 20:32:33 10° SE 20:36:58 29° E 20:41:23 10° NNE visible
25 Jun 7.8 22:13:17 10° SW 22:17:34 26° W 22:21:54 10° NNW visible
26 Jun 6.7 21:38:53 10° SSW 21:43:55 50° W 21:48:58 10° N visible
27 Jun 5.8 21:05:10 10° S 21:10:22 84° E 21:15:36 10° N visible
28 Jun 6.3 20:32:03 10° SSE 20:36:56 42° E 20:41:50 10° NNE visible
28 Jun 8.4 22:14:23 10° WSW 22:17:48 18° WNW 22:21:14 10° NW visible
29 Jun 7.4 21:39:24 10° SSW 21:44:04 33° W 21:48:46 10° NNW visible
30 Jun 6.3 21:05:17 10° S 21:10:27 65° W 21:15:38 10° N visible
01 Jul 5.9 20:31:49 10° S 20:36:57 64° E 20:42:06 10° N visible
01 Jul 8.7 22:16:24 10° W 22:18:05 11° WNW 22:19:47 10° WNW visible
02 Jul 8.1 21:40:13 10° SW 21:44:16 23° W 21:48:20 10° NNW visible
03 Jul 7.1 21:05:38 10° SSW 21:10:34 43° W 21:15:32 10° NNW visible
04 Jul 5.9 20:31:48 10° S 20:37:00 85° W 20:42:14 10° N visible
